Regional Weather Roundup
Issued by NWS

Home | Current Version | Previous Version | Graphics & Text | Print | Product List | Glossary On
Versions: 1 2 3 4 5 6 7 8 9 10 11 12 13 14 15 16 17 18 19 20 21 22 23 24 25 26 27 28 29 30 31 32 33 34 35 36 37 38 39 40 41 42 43 44 45 46 47 48 49 50
000
ASUS45 KSLC 251610
RWRUT

UTAH REGIONAL WEATHER ROUNDUP
NATIONAL WEATHER SERVICE SALT LAKE CITY UT
900 AM MST SUN JAN 25 2015

UTZ001>011-023>025-251700-

NORTHERN UTAH

CITY           SKY/WX    TMP DP  RH WIND       PRES   REMARKS
BRIGHAM CITY   CLOUDY    34  31  88 CALM      30.47S
HILL AFB       MOSUNNY   34  24  66 SE5       30.45S WCI  30
LOGAN          CLOUDY    33  30  88 CALM      30.45S FOG
OGDEN          MOSUNNY   33  28  81 S6        30.45S WCI  28
PROVO AIRPORT  PTSUNNY   32  27  80 CALM      30.47F
SALT LAKE CITY PTSUNNY   35  29  78 CALM      30.47R
VERNAL         MOSUNNY   24  17  74 CALM      30.41R
WENDOVER       MOSUNNY   27  19  74 CALM      30.47S
HEBER CITY     CLOUDY    32  27  80 CALM      30.46S
WEST JORDAN    SUNNY     36  28  75 CALM      30.47S

$$

UTZ012>022-026-027-251700-

SOUTHERN/CENTRAL UTAH

CITY           SKY/WX    TMP DP  RH WIND       PRES   REMARKS
BLANDING       SUNNY     38  24  57 W6        30.40R WCI  34
BRYCE CANYON   SUNNY     28  26  92 NW9       30.41S WCI  19
CEDAR CITY     MOSUNNY   31  25  78 CALM      30.42R
DELTA          SUNNY     31  27  83 CALM      30.47R
MILFORD        SUNNY     33  23  66 NE3       30.45R
MOAB/CYNLANDS  SUNNY     30  20  66 CALM      30.39S
PRICE          SUNNY     32  20  61 E7        30.36R WCI  26
ST GEORGE      SUNNY     43  23  45 E7        30.37R
KANAB          SUNNY     37  27  65 NW13      30.38F WCI  29

$$

REGIONAL REPORTS     COLORADO/ARIZONA

CITY           SKY/WX    TMP DP  RH WIND       PRES   REMARKS
CRAIG, CO      CLOUDY    17  14  88 SE3       30.39R
GRAND JUNCTION SUNNY     29  17  61 SE6       30.39S WCI  23
RIFLE          MOSUNNY   23  18  81 CALM      30.43R
MONTROSE       MOSUNNY   27  17  66 SE6       30.42R WCI  20
CORTEZ         SUNNY     28  19  69 CALM      30.34R
PAGE, AZ       NOT AVBL
GRAND CANYON   SUNNY     45  22  40 NE9       30.35S
KINGMAN        SUNNY     48  22  35 CALM      30.26S
FLAGSTAFF      SUNNY     44  16  32 E13G24    30.32S

$$

REGIONAL REPORTS    NEVADA/IDAHO/WYOMING

CITY           SKY/WX    TMP DP  RH WIND       PRES   REMARKS
LAS VEGAS, NV  SUNNY     50  26  39 SW8       30.25S
ELY            MOSUNNY   25  22  88 S3        30.47R
ELKO           CLEAR     26  22  84 NE6       30.46R WCI  19
POCATELLO, ID  CLOUDY    30  30 100 N5        30.46R FOG     WCI  25
BURLEY         PTCLDY    33  30  88 NE5       30.42R WCI  29
EVANSTON, WY   MOSUNNY   31  29  92 SW10      30.43R WCI  22
ROCK SPRINGS   MOSUNNY   34  28  79 W29G37    30.33R WCI  20
KEMMERER       CLOUDY    32  30  93 S8        30.40S WCI  25

$$


USA.gov is the U.S. government's official web portal to all federal, state and local government web resources and services.